Stations météo

Publicité
Cherbourg, France (7024): Température de l'air & dewpoint: 14.07.2018 01:00:00 - 20.07.2018 01:00:00 (CEST)Cherbourg, France (7024): Température de l'air 5cm: 14.07.2018 01:00:00 - 20.07.2018 01:00:00 (CEST)Cherbourg, France (7024): Température de l'air -20cm & Température de l'air -100cm: 14.07.2018 01:00:00 - 20.07.2018 01:00:00 (CEST)Cherbourg, France (7024): Vitesse du vent & gusts: 14.07.2018 01:00:00 - 20.07.2018 01:00:00 (CEST)Cherbourg, France (7024): Direction du vent: 14.07.2018 01:00:00 - 20.07.2018 01:00:00 (CEST)Cherbourg, France (7024): reduced air pressure: 14.07.2018 01:00:00 - 20.07.2018 01:00:00 (CEST)Cherbourg, France (7024): visibility: 14.07.2018 01:00:00 - 20.07.2018 01:00:00 (CEST)Cherbourg, France (7024): Ensoleillement: 14.07.2018 01:00:00 - 20.07.2018 01:00:00 (CEST)Cherbourg, France (7024): Quantités de précipitations: 14.07.2018 01:00:00 - 20.07.2018 01:00:00 (CEST)
Date & Time tt [°C] td [°C] tt 5cm [°C] tt -20cm [°C] tt -100cm [°C] ff [km/h] ff [knt] fx [km/h] fx [knt] dd ppp [hPa] vv [km] sd [min] rr [mm]
20.07.2018 01:00:00 - - - - - - - - - - - - - -
20.07.2018 00:00:00 15,1 13,1 13,7 17,7 15,4 8 5 15 8 NW 1017,2 26 0 0,0
19.07.2018 23:00:00 15,5 13,7 14,2 17,8 15,4 6 3 13 7 NNW 1017,2 24 0 0,0
19.07.2018 22:00:00 16,2 13,7 15,5 17,8 15,4 5 3 18 10 NNW 1017,0 22 24 0,0
19.07.2018 21:00:00 17,5 13,8 19,8 17,7 15,4 9 5 16 9 NNW 1017,0 30 60 0,0
19.07.2018 20:00:00 18,3 14,2 23,0 17,7 15,4 9 5 19 10 NNW 1017,0 19 60 0,0
19.07.2018 19:00:00 18,4 13,9 22,8 17,5 15,4 10 6 19 11 NW 1017,0 33 45 0,0
19.07.2018 18:00:00 18,9 13,7 25,2 17,3 15,4 12 6 20 11 NNW 1017,1 20 49 0,0
19.07.2018 17:00:00 20,9 13,8 36,6 17,2 15,4 11 6 22 12 N 1017,2 20 60 0,0
19.07.2018 16:00:00 21,7 14,1 33,0 17,0 15,4 12 6 27 15 NE 1017,5 20 53 0,0
19.07.2018 15:00:00 22,0 12,8 35,3 16,8 15,4 16 9 27 15 ENE 1017,7 17 60 0,0
19.07.2018 14:00:00 21,7 12,3 35,0 16,7 15,4 15 8 31 17 NE 1018,0 20 60 0,0
19.07.2018 13:00:00 20,8 12,2 29,0 16,6 15,4 17 9 29 16 NE 1018,2 20 14 0,0
19.07.2018 12:00:00 21,1 11,1 29,1 16,6 15,4 18 10 32 17 NE 1017,9 60 44 0,0
19.07.2018 11:00:00 20,5 11,4 25,7 16,6 15,4 16 9 27 14 NNE 1018,1 60 50 0,0
19.07.2018 10:00:00 19,0 12,0 19,8 16,6 15,4 15 8 23 12 NNE 1018,4 51 14 0,0
19.07.2018 09:00:00 16,1 15,5 15,5 16,7 15,4 10 5 17 9 N 1018,9 14 0 0,0
19.07.2018 08:00:00 15,2 14,4 13,7 16,8 15,4 7 4 13 7 NNW 1018,9 17 0 0,0
19.07.2018 07:00:00 14,4 13,3 12,6 16,8 15,4 8 4 13 7 NNW 1019,0 24 0 0,0
19.07.2018 06:00:00 14,4 12,9 10,6 16,9 15,4 8 4 11 6 NNW 1019,1 45 0 0,0
19.07.2018 05:00:00 14,0 12,2 11,6 17,0 15,4 6 4 10 5 N 1019,2 52 0 0,0
19.07.2018 04:00:00 14,3 13,3 12,4 17,1 15,4 6 3 14 7 NNW 1019,3 49 0 0,0
19.07.2018 03:00:00 14,7 13,9 13,5 17,2 15,4 8 4 11 6 NNW 1019,7 19 0 0,0
19.07.2018 02:00:00 14,7 14,1 11,2 17,3 15,4 6 3 9 5 NNW 1020,0 31 0 0,0
19.07.2018 01:00:00 14,2 13,4 8,0 17,4 15,4 6 3 8 5 NNW 1019,9 35 0 0,0
19.07.2018 00:00:00 13,5 12,6 6,6 17,5 15,4 7 4 8 5 N 1019,7 59 0 0,0
18.07.2018 23:00:00 14,3 12,7 8,7 17,5 15,4 5 3 8 4 NNE 1019,4 19 0 0,0
18.07.2018 22:00:00 15,5 12,3 15,0 17,5 15,4 5 3 9 5 N 1019,3 60 24 0,0
18.07.2018 21:00:00 16,3 12,5 17,1 17,5 15,4 6 3 16 8 N 1019,1 60 37 0,0
18.07.2018 20:00:00 17,8 12,0 24,0 17,4 15,4 11 6 17 9 NNE 1019,0 60 53 0,0
18.07.2018 19:00:00 19,0 11,6 25,5 17,3 15,4 11 6 20 11 NNE 1019,0 60 50 0,0
18.07.2018 18:00:00 20,0 10,7 33,1 17,1 15,4 13 7 23 12 NNE 1018,9 51 60 0,0
18.07.2018 17:00:00 20,9 10,7 36,3 16,9 15,4 15 8 23 12 NE 1019,0 50 60 0,0
18.07.2018 16:00:00 21,0 10,8 37,5 16,7 15,4 14 7 23 12 NNE 1019,1 57 60 0,0
18.07.2018 15:00:00 21,2 10,4 37,4 16,5 15,4 11 6 24 13 NE 1019,2 60 60 0,0
18.07.2018 14:00:00 21,0 11,1 34,6 16,4 15,4 13 7 22 12 NNE 1019,2 60 58 0,0
18.07.2018 13:00:00 20,1 11,0 29,9 16,3 15,4 11 6 23 12 NNE 1019,4 60 52 0,0
18.07.2018 12:00:00 19,6 11,4 24,9 16,3 15,4 11 6 20 11 N 1019,5 58 45 0,0
18.07.2018 11:00:00 19,4 10,7 26,4 16,2 15,4 11 6 19 10 NW 1019,4 60 60 0,0
18.07.2018 10:00:00 18,2 11,3 20,8 16,3 15,5 4 2 8 5 NW 1019,6 60 20 0,0
18.07.2018 09:00:00 17,3 10,9 16,2 16,3 15,4 0 0 7 4 N 1019,5 59 5 0,0
18.07.2018 08:00:00 13,9 12,8 10,5 16,4 15,4 5 3 7 4 S 1019,5 59 4 0,0
18.07.2018 07:00:00 12,5 11,2 10,7 16,5 15,4 6 3 9 5 S 1019,2 46 0 0,0
18.07.2018 06:00:00 12,1 11,3 6,9 16,6 15,4 2 1 6 3 WSW 1019,0 15 0 0,0
18.07.2018 05:00:00 11,6 10,2 5,4 16,6 15,4 4 2 6 3 SW 1019,2 47 0 0,0
18.07.2018 04:00:00 12,6 10,1 7,0 16,7 15,4 3 1 4 2 WSW 1019,1 60 0 0,0
18.07.2018 03:00:00 14,5 11,3 13,0 16,8 15,4 4 2 7 4 W 1019,1 60 0 0,0
18.07.2018 02:00:00 14,9 11,1 13,2 16,8 15,4 6 3 8 5 WSW 1019,2 60 0 0,0
18.07.2018 01:00:00 15,1 10,9 14,1 16,9 15,4 6 3 10 6 W 1019,4 60 0 0,0
18.07.2018 00:00:00 15,1 11,1 14,0 16,9 15,4 4 2 9 5 SSW 1019,4 60 0 0,0
17.07.2018 23:00:00 16,0 11,0 13,5 17,0 15,4 6 4 13 7 WSW 1019,1 60 0 0,0
17.07.2018 22:00:00 15,4 10,0 13,7 17,0 15,4 9 5 14 8 WSW 1018,9 27 26 0,0
17.07.2018 21:00:00 18,7 10,8 18,5 17,0 15,4 10 6 23 12 W 1018,5 60 33 0,0
17.07.2018 20:00:00 19,5 10,8 21,3 16,9 15,4 15 8 25 13 W 1018,4 60 60 0,0
17.07.2018 19:00:00 19,6 12,8 21,6 16,8 15,4 14 7 28 15 WNW 1018,3 60 40 0,0
17.07.2018 18:00:00 19,4 11,7 22,8 16,6 15,4 16 9 30 16 NW 1018,5 59 52 0,0
17.07.2018 17:00:00 19,8 11,6 24,7 16,6 15,4 16 8 27 15 NW 1018,7 20 54 0,0
17.07.2018 16:00:00 20,0 12,2 25,0 16,5 15,4 14 7 23 13 WNW 1018,8 60 53 0,0
17.07.2018 15:00:00 18,8 12,5 20,8 16,5 15,4 11 6 25 13 NW 1019,1 60 0 0,0
17.07.2018 14:00:00 18,6 13,0 16,0 16,4 15,4 10 5 30 16 NW 1019,0 60 5 0,0
17.07.2018 13:00:00 17,5 13,4 16,2 16,5 15,4 15 8 21 12 W 1019,2 60 0 0,2
17.07.2018 12:00:00 16,4 14,1 14,6 16,5 15,4 9 5 27 14 W 1019,1 12 3 1,2
17.07.2018 11:00:00 18,3 12,5 18,8 16,5 15,4 13 7 24 13 SW 1018,5 58 0 0,0
17.07.2018 10:00:00 18,1 11,9 19,8 16,5 15,4 14 8 25 13 W 1018,3 52 37 0,0
17.07.2018 09:00:00 17,8 11,1 16,6 16,6 15,4 11 6 16 9 W 1018,1 60 57 0,0
17.07.2018 08:00:00 15,6 11,6 9,9 16,7 15,4 9 5 14 8 WSW 1017,9 53 60 0,0
17.07.2018 07:00:00 11,5 9,9 6,0 16,9 15,4 8 5 10 6 SW 1017,9 60 14 0,0
17.07.2018 06:00:00 10,7 9,1 4,9 16,9 15,4 7 4 9 5 WSW 1017,6 59 0 0,0
17.07.2018 05:00:00 11,5 9,9 5,3 17,0 15,4 5 3 8 5 W 1017,4 16 0 0,0
17.07.2018 04:00:00 12,8 10,9 7,1 17,1 15,4 3 2 16 9 WNW 1017,4 38 0 0,0
17.07.2018 03:00:00 13,7 11,7 11,7 17,2 15,4 9 5 22 12 WNW 1017,3 45 0 0,0
17.07.2018 02:00:00 15,5 12,6 14,2 17,3 15,4 14 8 27 15 WNW 1017,2 50 0 0,0
17.07.2018 01:00:00 16,2 12,7 15,0 17,3 15,4 17 9 29 16 W 1017,1 53 0 0,0
17.07.2018 00:00:00 16,5 13,4 15,7 17,4 15,4 17 9 29 15 W 1016,8 53 0 0,0
16.07.2018 23:00:00 17,0 13,9 15,9 17,4 15,4 18 10 27 15 W 1016,5 59 0 0,0
16.07.2018 22:00:00 17,3 14,6 16,6 17,4 15,4 16 9 31 17 W 1015,8 48 26 0,0
16.07.2018 21:00:00 19,8 14,6 21,4 17,4 15,4 17 9 31 17 W 1015,3 54 60 0,0
16.07.2018 20:00:00 20,8 13,7 22,1 17,3 15,4 21 12 33 18 WNW 1014,9 50 52 0,0
16.07.2018 19:00:00 20,7 14,3 24,4 17,2 15,4 21 11 35 19 WNW 1014,7 48 60 0,0
16.07.2018 18:00:00 22,2 12,7 28,4 17,1 15,4 15 8 22 12 WNW 1014,6 18 60 0,0
16.07.2018 17:00:00 24,0 12,9 25,6 17,0 15,4 14 7 32 17 W 1014,5 60 50 0,0
16.07.2018 16:00:00 20,8 13,0 23,2 16,8 15,4 13 7 29 16 WNW 1015,1 20 0 0,0
16.07.2018 15:00:00 20,1 12,6 24,6 16,7 15,4 14 8 25 13 NW 1015,3 60 3 0,0
16.07.2018 14:00:00 21,1 11,4 27,1 16,6 15,4 14 8 22 12 NW 1015,2 57 29 0,0
16.07.2018 13:00:00 21,8 12,6 29,0 16,5 15,4 14 7 22 12 NW 1015,2 59 56 0,0
16.07.2018 12:00:00 23,2 9,9 31,5 16,5 15,4 9 5 16 9 NW 1014,9 60 60 0,0
16.07.2018 11:00:00 22,4 9,9 27,4 16,5 15,4 7 4 13 7 WNW 1014,9 60 60 0,0
16.07.2018 10:00:00 21,1 10,6 25,0 16,5 15,4 8 4 13 7 WNW 1014,9 60 60 0,0
16.07.2018 09:00:00 20,0 11,7 16,8 16,6 15,4 6 3 12 7 NW 1014,9 60 60 0,0
16.07.2018 08:00:00 17,1 12,0 9,9 16,7 15,4 6 4 11 6 NW 1015,0 40 60 0,0
16.07.2018 07:00:00 13,5 10,7 6,9 16,8 15,4 6 3 11 6 NW 1015,3 16 23 0,0
16.07.2018 06:00:00 12,9 10,4 5,8 17,0 15,4 6 4 12 6 WNW 1015,5 9 0 0,2
16.07.2018 05:00:00 12,4 11,3 4,4 17,1 15,4 8 4 10 5 WNW 1015,7 16 0 0,0
16.07.2018 04:00:00 12,2 11,3 4,0 17,3 15,4 5 3 8 5 NW 1015,9 11 0 0,0
16.07.2018 03:00:00 11,8 9,9 4,1 17,4 15,4 4 2 5 3 NW 1016,1 20 0 0,0
16.07.2018 02:00:00 12,0 10,4 4,9 17,6 15,4 4 2 7 4 WSW 1016,5 27 0 0,0
16.07.2018 01:00:00 12,9 9,2 4,7 17,7 15,4 3 2 8 5 W 1016,5 46 0 0,0
16.07.2018 00:00:00 13,4 10,6 5,3 17,8 15,4 5 3 6 4 SW 1016,5 26 0 0,0
15.07.2018 23:00:00 14,1 10,7 7,7 17,8 15,4 6 3 9 5 W 1016,4 18 0 0,0
15.07.2018 22:00:00 16,7 10,3 14,6 17,9 15,4 6 3 10 5 W 1016,1 47 28 0,0
15.07.2018 21:00:00 19,8 11,8 22,2 17,8 15,4 8 4 16 9 NW 1015,7 44 60 0,0
15.07.2018 20:00:00 20,6 10,7 25,4 17,7 15,4 10 5 18 10 NW 1015,6 60 60 0,0
15.07.2018 19:00:00 20,8 11,4 28,0 17,5 15,4 10 6 21 12 NNW 1016,1 59 60 0,0
15.07.2018 18:00:00 21,2 11,8 30,3 17,4 15,4 10 6 21 11 NNW 1016,4 42 60 0,0
15.07.2018 17:00:00 21,5 12,3 30,6 17,2 15,4 12 7 27 14 NW 1016,6 39 60 0,0
15.07.2018 16:00:00 21,2 12,9 31,0 17,0 15,4 14 8 24 13 NNW 1016,7 20 60 0,0
15.07.2018 15:00:00 21,3 14,5 33,7 16,8 15,4 12 6 21 11 NNW 1016,9 43 60 0,0
15.07.2018 14:00:00 22,0 14,1 32,7 16,6 15,4 11 6 17 9 N 1017,2 46 60 0,0
15.07.2018 13:00:00 21,3 13,7 31,2 16,6 15,4 9 5 17 9 N 1017,5 20 60 0,0
15.07.2018 12:00:00 20,2 13,6 28,9 16,5 15,4 9 5 17 9 NNW 1017,7 20 60 0,0
15.07.2018 11:00:00 19,1 13,5 25,8 16,6 15,4 9 5 14 8 NNW 1017,6 18 60 0,0
15.07.2018 10:00:00 17,7 13,2 22,6 16,6 15,4 9 5 15 8 NNW 1017,9 19 60 0,0
15.07.2018 09:00:00 17,1 12,8 15,2 16,7 15,4 7 4 11 6 NNW 1018,2 45 60 0,0
15.07.2018 08:00:00 15,3 11,7 7,7 16,9 15,4 7 4 10 5 NW 1018,1 20 60 0,0
15.07.2018 07:00:00 12,9 11,1 4,4 17,0 15,4 4 2 9 5 N 1017,9 30 24 0,0
15.07.2018 06:00:00 11,4 9,3 3,8 17,2 15,4 7 4 9 5 NNW 1018,1 20 0 0,0
15.07.2018 05:00:00 12,2 10,4 4,0 17,3 15,4 8 4 10 6 NW 1018,4 27 0 0,2
15.07.2018 04:00:00 11,9 10,5 3,5 17,4 15,4 7 4 9 5 NW 1018,6 20 0 0,0
15.07.2018 03:00:00 11,0 10,2 3,8 17,5 15,4 7 4 9 5 NW 1018,9 7 0 0,0
15.07.2018 02:00:00 11,5 10,7 4,9 17,7 15,4 5 3 9 5 WNW 1019,5 5 0 0,0
15.07.2018 01:00:00 12,3 11,7 8,0 17,8 15,3 7 4 10 5 NW 1019,7 0,2 0 0,0
15.07.2018 00:00:00 13,4 12,8 6,1 17,9 15,4 6 4 10 5 NW 1019,6 4,5 0 0,0
14.07.2018 23:00:00 13,4 11,8 6,9 18,0 15,3 3 2 8 5 NNW 1019,6 8 0 0,0
14.07.2018 22:00:00 15,6 13,1 13,9 18,0 15,3 4 2 8 4 NNW 1019,2 26 29 0,0
14.07.2018 21:00:00 17,5 13,6 20,6 17,9 15,4 5 3 16 9 NNW 1019,3 32 60 0,0
14.07.2018 20:00:00 19,7 13,6 30,1 17,8 15,4 9 5 15 8 N 1019,0 20 60 0,0
14.07.2018 19:00:00 19,8 13,5 32,8 17,7 15,4 11 6 19 10 NNE 1019,4 60 60 0,0
14.07.2018 18:00:00 21,9 13,0 36,7 17,5 15,3 9 5 20 11 NE 1019,6 20 60 0,0
14.07.2018 17:00:00 22,0 13,6 37,3 17,3 15,4 12 6 22 12 NE 1019,8 18 60 0,0
14.07.2018 16:00:00 22,0 13,9 38,0 17,1 15,4 13 7 26 14 ENE 1020,1 19 60 0,0
14.07.2018 15:00:00 21,7 13,8 37,5 16,9 15,3 15 8 25 14 NE 1020,5 19 60 0,0
14.07.2018 14:00:00 21,8 13,7 36,6 16,8 15,3 16 9 25 14 NNE 1020,6 20 60 0,0
14.07.2018 13:00:00 21,7 14,1 36,5 16,7 15,3 13 7 26 14 NE 1020,7 40 60 0,0
14.07.2018 12:00:00 21,5 13,9 33,7 16,6 15,3 11 6 29 16 ENE 1021,1 41 58 0,0
14.07.2018 11:00:00 20,9 14,1 29,5 16,6 15,3 11 6 25 14 ENE 1021,2 19 60 0,0
14.07.2018 10:00:00 19,5 14,1 23,1 16,7 15,3 8 4 13 7 ENE 1021,4 17 60 0,0
14.07.2018 09:00:00 16,5 14,1 16,6 16,7 15,3 6 4 13 7 ENE 1021,6 12 60 0,0
14.07.2018 08:00:00 15,3 14,8 9,2 16,9 15,3 8 4 12 6 ENE 1021,3 7 60 0,0
14.07.2018 07:00:00 13,5 13,0 6,5 17,0 15,3 6 3 9 5 NNE 1021,3 0,2 0 0,2
14.07.2018 06:00:00 12,8 12,3 5,0 17,1 15,3 8 4 9 5 N 1021,4 1,2 0 0,0
14.07.2018 05:00:00 12,5 12,0 5,5 17,2 15,3 6 4 9 5 N 1021,6 0,2 0 0,0
14.07.2018 04:00:00 12,5 11,9 10,3 17,4 15,3 3 1 8 4 NW 1021,9 0,1 0 0,0
14.07.2018 03:00:00 12,7 12,1 6,5 17,4 15,3 5 3 9 5 NNW 1022,2 0,2 0 0,2
14.07.2018 02:00:00 13,2 12,7 6,5 17,6 15,3 6 3 9 5 N 1022,3 0,1 0 0,0
14.07.2018 01:00:00 12,6 12,0 6,9 17,7 15,3 5 3 6 4 N 1022,6 0,4 0 0,0

tt = Température de l'air
td = dewpoint
tt 5cm = Température de l'air 5cm
tt -20cm = Température de l'air -20cm
tt -100cm = Température de l'air -100cm
ff = Vitesse du vent
fx = gusts
dd = Direction du vent
ppp = reduced air pressure
vv = visibility
sd = Ensoleillement
rr = Quantités de précipitations

stations d'obs. à proximité